DW1902 Weather Reports


Display with metric or nautical units.
time (UTC)temp
F
wind
direction
speed
MPH
gust
MPH
rain 1hr
in
rain 24hr
in
rain mn
in
humidity
%
barometer
mb
20240303185228 44 80 0.0 5.0 0.20 0.60 0.61 96 1019.0
20240303185213 44 109 0.0 7.0 0.21 0.62 0.63 96 1018.9
20240303184143 44 76 1.0 7.0 0.20 0.58 0.59 96 1019.2
20240303183643 44 75 2.0 9.0 0.19 0.57 0.57 96 1019.3
20240303183143 44 76 1.0 9.0 0.18 0.55 0.55 96 1019.4
20240303182643 44 94 2.0 7.0 0.17 0.54 0.54 96 1019.7
20240303182143 44 102 0.0 7.0 0.16 0.52 0.52 96 1019.8
20240303181645 43 135 1.0 4.0 0.16 0.51 0.51 96 1019.8
20240303181143 43 137 1.0 5.0 0.14 0.49 0.49 96 1020.0
20240303180642 43 137 0.0 9.0 0.13 0.46 0.47 96 1020.1
20240303180142 43 164 2.0 9.0 0.12 0.44 0.45 96 1020.2
20240303175925 42 103 1.0 6.0 0.10 0.43 0.43 96 1020.6
20240303175144 42 103 2.0 5.0 0.10 0.42 0.42 96 1020.7
20240303174642 42 116 1.0 5.0 0.09 0.40 0.40 96 1020.9
20240303174143 42 117 0.0 5.0 0.09 0.39 0.39 96 1021.1
20240303173641 42 117 1.0 7.0 0.07 0.38 0.38 96 1021.3
20240303173141 42 117 3.0 9.0 0.07 0.37 0.37 96 1021.4
20240303172641 42 82 0.0 9.0 0.06 0.36 0.36 96 1021.6
20240303172141 42 114 0.0 6.0 0.06 0.36 0.36 96 1021.8
20240303171641 43 114 1.0 6.0 0.06 0.35 0.35 95 1021.8
20240303171143 43 114 1.0 5.0 0.06 0.35 0.35 95 1021.9
20240303170641 43 116 2.0 5.0 0.06 0.34 0.34 95 1022.0
20240303170140 43 116 0.0 5.0 0.06 0.33 0.33 96 1022.3
20240303165640 43 116 0.0 7.0 0.06 0.33 0.33 96 1022.4
20240303165142 43 116 0.0 7.0 0.06 0.31 0.31 96 1022.5
20240303164641 43 128 1.0 5.0 0.06 0.31 0.31 96 1022.7
20240303164140 43 138 0.0 4.0 0.06 0.31 0.31 96 1022.7
20240303163926 43 138 0.0 4.0 0.06 0.31 0.31 96 1022.8
20240303163140 43 138 0.0 3.0 0.06 0.30 0.30 95 1023.1
20240303162640 43 138 0.0 3.0 0.06 0.30 0.30 95 1023.0
20240303162142 43 138 0.0 5.0 0.07 0.30 0.30 95 1023.3
20240303161640 43 138 0.0 5.0 0.08 0.30 0.30 95 1023.2
20240303161139 43 162 1.0 3.0 0.07 0.29 0.29 95 1023.3
20240303160639 43 162 0.0 3.0 0.07 0.28 0.28 95 1023.5
20240303160140 43 162 0.0 0.0 0.07 0.28 0.28 95 1023.6
20240303155639 43 162 0.0 1.0 0.06 0.27 0.27 95 1023.7
20240303155140 43 162 0.0 3.0 0.06 0.26 0.26 95 1023.8
20240303154639 43 162 1.0 3.0 0.06 0.26 0.26 95 1023.9
20240303154139 42 162 0.0 2.0 0.06 0.25 0.25 95 1024.0
20240303153640 42 162 0.0 0.0 0.06 0.24 0.24 95 1024.1
20240303153435 42 162 0.0 2.0 0.06 0.24 0.24 95 1024.3
20240303152638 42 162 0.0 3.0 0.06 0.24 0.24 95 1024.6
20240303152139 42 164 0.0 4.0 0.05 0.23 0.23 95 1024.6
20240303151639 42 164 1.0 4.0 0.05 0.22 0.22 95 1024.7
20240303151219 41 164 0.0 0.0 0.04 0.21 0.21 95 1024.9
20240303151207 41 164 0.0 2.0 0.05 0.22 0.22 95 1024.8
20240303150140 41 164 0.0 2.0 0.04 0.20 0.20 95 1024.9
20240303145637 41 164 0.0 2.0 0.05 0.20 0.20 95 1025.0
20240303145137 41 164 0.0 2.0 0.06 0.20 0.20 95 1025.1
20240303144638 41 164 0.0 2.0 0.06 0.20 0.20 95 1025.1
20240303144137 41 164 0.0 0.0 0.05 0.19 0.19 95 1025.3
20240303143637 41 164 0.0 0.0 0.06 0.19 0.19 95 1025.2
20240303143137 41 164 0.0 0.0 0.06 0.19 0.19 95 1025.2
20240303142637 41 164 0.0 1.0 0.06 0.18 0.18 95 1025.3
20240303142430 41 164 0.0 1.0 0.06 0.18 0.18 95 1025.4
20240303141636 41 164 0.0 1.0 0.06 0.17 0.17 95 1025.4
20240303141136 41 164 0.0 1.0 0.06 0.17 0.17 95 1025.5
20240303141017 41 164 0.0 0.0 0.07 0.17 0.17 95 1025.6
20240303140712 41 164 0.0 0.0 0.07 0.17 0.17 95 1025.5
20240303135636 41 164 0.0 2.0 0.07 0.16 0.16 94 1025.6
20240303135136 41 164 0.0 3.0 0.07 0.15 0.15 94 1025.6
20240303134635 41 164 1.0 3.0 0.06 0.14 0.14 95 1025.7
20240303134136 41 164 0.0 3.0 0.07 0.13 0.14 95 1025.9
20240303133636 41 164 0.0 1.0 0.06 0.13 0.13 94 1026.0
20240303133136 41 164 0.0 0.0 0.06 0.13 0.13 94 1026.1
20240303132636 41 164 0.0 0.0 0.06 0.12 0.12 94 1026.2
20240303132135 41 164 0.0 1.0 0.07 0.12 0.12 94 1026.1
20240303131636 41 164 0.0 1.0 0.07 0.11 0.11 94 1026.1
20240303131136 41 164 0.0 3.0 0.08 0.11 0.11 94 1026.0
20240303130635 41 164 0.0 3.0 0.08 0.10 0.10 94 1026.1
20240303130136 41 164 0.0 2.0 0.08 0.09 0.09 94 1026.3
20240303125634 41 164 0.0 0.0 0.07 0.09 0.09 94 1026.3
20240303125135 41 164 0.0 0.0 0.06 0.08 0.08 99 1026.3
20240303124634 41 164 0.0 0.0 0.06 0.08 0.08 94 1026.4
20240303124134 41 164 0.0 0.0 0.06 0.07 0.07 94 1026.5
20240303123634 41 164 0.0 0.0 0.05 0.06 0.06 94 1026.6
20240303123428 41 164 0.0 0.0 0.05 0.06 0.06 94 1026.6
20240303122634 41 164 0.0 0.0 0.04 0.06 0.06 94 1026.6
20240303122448 41 164 0.0 0.0 0.03 0.05 0.05 93 1026.8
20240303121925 41 164 0.0 1.0 0.02 0.04 0.04 93 1026.9
20240303121134 41 164 0.0 1.0 0.02 0.03 0.03 93 1027.0
20240303120634 41 164 0.0 2.0 0.02 0.02 0.02 93 1027.0
20240303120523 41 164 0.0 3.0 0.01 0.02 0.02 93 1026.8
20240303120518 41 164 0.0 3.0 0.01 0.02 0.02 93 1027.0
20240303115134 41 164 0.0 3.0 0.01 0.02 0.02 93 1026.9
20240303114925 41 164 0.0 4.0 0.02 0.02 0.02 93 1026.8
20240303114133 42 164 0.0 9.0 0.02 0.02 0.02 93 1026.8
20240303113635 42 164 1.0 9.0 0.02 0.02 0.02 93 1026.6
20240303113133 42 166 0.0 7.0 0.02 0.02 0.02 93 1026.8
20240303112927 42 164 2.0 6.0 0.02 0.02 0.02 93 1026.6
20240303112429 42 165 1.0 9.0 0.02 0.02 0.02 93 1026.6
20240303111633 42 165 4.0 9.0 0.02 0.02 0.02 93 1026.6
20240303111220 42 192 0.0 4.0 0.01 0.01 0.01 93 1026.5
20240303111204 42 186 2.0 6.0 0.01 0.01 0.01 93 1026.5
20240303110429 42 192 0.0 5.0 0.01 0.01 0.01 93 1026.8
20240303105631 42 192 1.0 6.0 0.01 0.01 0.01 93 1026.6
20240303105132 42 199 2.0 6.0 0.01 0.01 0.01 93 1026.6
20240303104631 42 199 1.0 10.0 0.00 0.00 0.00 93 1026.6
20240303104429 42 212 2.0 10.0 0.00 0.00 0.00 93 1026.6
20240303103632 42 148 0.0 10.0 0.00 0.00 0.00 93 1026.6
20240303103134 42 148 1.0 10.0 0.00 0.00 0.00 92 1026.8
20240303102633 42 142 1.0 5.0 0.00 0.00 0.00 92 1026.8
20240303102131 42 142 0.0 5.0 0.00 0.00 0.00 92 1026.8
20240303101632 42 141 0.0 5.0 0.00 0.00 0.00 92 1026.9
20240303101131 42 141 0.0 9.0 0.00 0.00 0.00 92 1026.9
20240303100632 42 141 1.0 13.0 0.00 0.00 0.00 92 1027.0
20240303100131 42 134 1.0 13.0 0.00 0.00 0.00 92 1027.0
20240303095631 41 168 1.0 5.0 0.00 0.00 0.00 92 1027.2
20240303095130 41 168 0.0 5.0 0.00 0.00 0.00 92 1027.1
20240303094921 41 168 0.0 7.0 0.00 0.00 0.00 92 1027.2
20240303094426 41 169 1.0 7.0 0.00 0.00 0.00 92 1027.3
20240303093631 41 168 0.0 7.0 0.00 0.00 0.00 92 1027.3
20240303093131 41 168 1.0 9.0 0.00 0.00 0.00 92 1027.3
20240303092631 41 165 2.0 9.0 0.00 0.00 0.00 93 1027.4
20240303092130 41 165 2.0 5.0 0.00 0.00 0.00 93 1027.4
20240303091630 41 165 1.0 9.0 0.00 0.00 0.00 93 1027.5
20240303091130 41 165 2.0 9.0 0.00 0.00 0.00 93 1027.5
20240303090631 41 169 1.0 6.0 0.00 0.00 0.00 93 1027.5
20240303090131 41 171 3.0 6.0 0.00 0.00 0.00 93 1027.6
20240303085630 41 171 2.0 6.0 0.00 0.00 0.00 94 1027.5
20240303085425 40 171 1.0 5.0 0.00 0.00 0.00 93 1027.6
20240303084635 40 171 2.0 5.0 0.00 0.00 0.00 93 1027.5
20240303084130 40 171 0.0 1.0 0.00 0.00 0.00 93 1027.6
20240303083629 40 171 0.0 1.0 0.00 0.00 0.00 93 1027.7
20240303083128 40 171 0.0 0.0 0.00 0.00 0.00 93 1027.7
20240303082628 40 171 0.0 0.0 0.00 0.00 0.00 94 1027.7
20240303082128 40 171 0.0 3.0 0.00 0.00 0.00 94 1027.7
20240303081628 40 171 0.0 3.0 0.00 0.00 0.00 94 1027.7
20240303081129 40 171 1.0 5.0 0.00 0.00 0.00 94 1027.7
20240303080628 40 171 1.0 5.0 0.00 0.00 0.00 94 1027.8
20240303080128 40 172 0.0 2.0 0.00 0.00 0.00 94 1027.9
20240303075627 40 172 0.0 3.0 0.00 0.00 0.00 94 1028.0
20240303075127 40 172 1.0 9.0 0.00 0.00 0.00 94 1028.2
20240303074628 39 172 0.0 9.0 0.00 0.00 0.00 94 1028.3
20240303074127 39 172 1.0 5.0 0.00 0.00 0.00 94 1028.0
20240303073715 39 172 0.0 3.0 0.00 0.00 0.00 94 1028.2
20240303073702 39 172 0.0 3.0 0.00 0.00 0.00 94 1028.2
20240303072627 39 172 0.0 3.0 0.00 0.00 0.00 94 1028.2
20240303072126 39 172 0.0 1.0 0.00 0.00 0.00 93 1028.3
20240303071626 39 172 0.0 2.0 0.00 0.00 0.00 93 1028.3
20240303071127 38 172 0.0 2.0 0.00 0.00 0.00 93 1028.4
20240303070626 38 172 0.0 0.0 0.00 0.00 0.00 93 1028.4
20240303070127 38 172 0.0 0.0 0.00 0.00 0.00 93 1028.5
20240303065626 38 172 0.0 0.0 0.00 0.00 0.00 93 1028.5
20240303065125 38 172 0.0 0.0 0.00 0.00 0.00 93 1028.5
20240303064916 38 172 0.0 0.0 0.00 0.00 0.00 93 1028.6
20240303064125 38 172 0.0 2.0 0.00 0.00 0.00 93 1028.7
20240303063626 39 172 0.0 2.0 0.00 0.00 0.00 93 1028.8
20240303063125 39 172 0.0 2.0 0.00 0.00 0.00 93 1028.9
20240303062625 39 172 0.0 1.0 0.00 0.00 0.00 93 1028.9
20240303062419 39 172 0.0 0.0 0.00 0.00 0.00 92 1029.1
20240303061625 39 172 0.0 0.0 0.00 0.00 0.00 92 1029.2
20240303061125 39 172 0.0 0.0 0.00 0.00 0.00 92 1029.2
20240303060625 39 172 0.0 0.0 0.00 0.00 0.00 92 1029.3
20240303060124 39 172 0.0 0.0 0.00 0.00 0.00 92 1029.4
20240303055625 39 172 0.0 0.0 0.00 0.00 0.00 92 1029.4
20240303055125 39 172 0.0 0.0 0.00 0.00 0.00 92 1029.6
20240303054624 39 172 0.0 0.0 0.00 0.00 0.00 92 1029.7
20240303054123 39 172 0.0 0.0 0.00 0.00 0.00 92 1029.6
20240303053624 39 172 0.0 2.0 0.00 0.00 0.00 92 1029.7
20240303053416 39 172 0.0 3.0 0.00 0.00 0.00 92 1029.8
20240303052731 39 172 0.0 3.0 0.00 0.00 0.00 91 1030.0
20240303052711 39 172 0.0 4.0 0.00 0.00 0.00 91 1029.8
20240303051623 39 172 0.0 3.0 0.00 0.00 0.00 91 1030.0
20240303051123 39 172 0.0 3.0 0.00 0.00 0.00 91 1030.1
20240303050623 39 172 0.0 3.0 0.00 0.00 0.00 91 1030.1
20240303050123 39 172 0.0 1.0 0.00 0.00 0.00 91 1030.1
20240303045622 39 172 0.0 4.0 0.00 0.00 0.00 91 1030.2
20240303045122 39 172 0.0 4.0 0.00 0.00 0.00 91 1030.4
20240303044623 39 172 0.0 0.0 0.00 0.00 0.00 91 1030.3
20240303044123 39 172 0.0 2.0 0.00 0.00 0.00 91 1030.2
20240303043623 39 172 0.0 2.0 0.00 0.00 0.00 91 1030.2
20240303043122 39 172 0.0 0.0 0.00 0.00 0.00 91 1030.2
20240303042624 39 172 0.0 0.0 0.00 0.00 0.00 91 1030.3
20240303042122 39 172 0.0 3.0 0.00 0.00 0.00 91 1030.3
20240303041910 38 172 1.0 3.0 0.00 0.00 0.00 91 1030.3
20240303041122 38 172 1.0 6.0 0.00 0.00 0.00 91 1030.3
20240303040622 38 172 0.0 6.0 0.00 0.00 0.00 91 1030.3
20240303040222 38 172 1.0 3.0 0.00 0.00 0.00 91 1030.5
20240303040155 38 172 1.0 3.0 0.00 0.00 0.00 91 1030.4
20240303035122 38 172 1.0 4.0 0.00 0.00 0.00 91 1030.4
20240303034622 38 172 1.0 4.0 0.00 0.00 0.00 91 1030.5
20240303034122 38 172 0.0 4.0 0.00 0.00 0.00 91 1030.6
20240303033621 38 172 0.0 4.0 0.00 0.00 0.00 91 1030.5
20240303033121 38 172 0.0 3.0 0.00 0.00 0.00 91 1030.5
20240303032621 38 172 0.0 3.0 0.00 0.00 0.00 91 1030.6
20240303032120 38 172 0.0 3.0 0.00 0.00 0.00 91 1030.7
20240303031620 38 172 0.0 4.0 0.00 0.00 0.00 91 1030.7
20240303031120 38 172 1.0 4.0 0.00 0.00 0.00 91 1030.7
20240303031009 38 172 0.0 3.0 0.00 0.00 0.00 91 1030.7
20240303031004 38 172 0.0 3.0 0.00 0.00 0.00 91 1030.7
20240303025619 38 172 0.0 2.0 0.00 0.00 0.00 91 1030.7
20240303025119 38 172 0.0 1.0 0.00 0.00 0.00 91 1030.8
20240303024917 38 172 0.0 1.0 0.00 0.00 0.00 91 1030.9
20240303024438 38 172 0.0 0.0 0.00 0.00 0.00 91 1030.9
20240303023619 38 172 0.0 0.0 0.00 0.00 0.00 91 1031.0
20240303023258 37 172 0.0 0.0 0.00 0.00 0.00 91 1031.1
20240303023231 38 172 0.0 0.0 0.00 0.00 0.00 91 1031.0
20240303022655 37 172 0.0 0.0 0.00 0.00 0.00 91 1031.1
20240303021618 37 172 0.0 2.0 0.00 0.00 0.00 91 1031.1
20240303021119 37 172 0.0 3.0 0.00 0.00 0.00 91 1031.1
20240303020619 37 172 0.0 3.0 0.00 0.00 0.00 91 1031.0
20240303020119 37 172 0.0 0.0 0.00 0.00 0.00 91 1031.2
20240303015618 37 172 0.0 3.0 0.00 0.00 0.00 91 1031.3
20240303015119 37 172 1.0 6.0 0.00 0.00 0.00 91 1031.3
20240303014914 37 172 0.0 6.0 0.00 0.00 0.00 91 1031.2
20240303014119 37 172 1.0 7.0 0.00 0.00 0.00 91 1031.3
20240303013910 36 172 1.0 7.0 0.00 0.00 0.00 91 1031.3
20240303013117 36 172 0.0 4.0 0.00 0.00 0.00 91 1031.5
20240303012617 36 172 1.0 4.0 0.00 0.00 0.00 91 1031.3
20240303012117 36 172 0.0 3.0 0.00 0.00 0.00 91 1031.3
20240303011618 36 172 0.0 6.0 0.00 0.00 0.00 90 1031.4
20240303011118 35 172 0.0 6.0 0.00 0.00 0.00 90 1031.4
20240303010617 35 172 1.0 5.0 0.00 0.00 0.00 90 1031.4
20240303010117 35 172 0.0 2.0 0.00 0.00 0.00 90 1031.3
20240303005617 35 172 0.0 3.0 0.00 0.00 0.00 90 1031.3
20240303005118 35 172 1.0 3.0 0.00 0.00 0.00 90 1031.3
20240303004617 35 172 0.0 2.0 0.00 0.00 0.00 90 1031.3
20240303004116 35 172 0.0 1.0 0.00 0.00 0.00 90 1031.3
20240303003911 35 172 0.0 2.0 0.00 0.00 0.00 90 1031.3
20240303003116 35 172 0.0 2.0 0.00 0.00 0.00 90 1031.3
20240303002617 36 172 0.0 0.0 0.00 0.00 0.00 90 1031.3
20240303002116 36 172 0.0 3.0 0.00 0.00 0.00 89 1031.3
20240303001616 36 172 0.0 3.0 0.00 0.00 0.00 89 1031.3
20240303001116 36 172 0.0 1.0 0.00 0.00 0.00 89 1031.5
20240303000615 36 172 0.0 3.0 0.00 0.00 0.00 89 1031.5
20240303000115 36 172 1.0 3.0 0.00 0.00 0.00 89 1031.4
20240302235616 36 172 0.0 4.0 0.00 0.00 0.00 89 1031.5
20240302235115 36 172 1.0 4.0 0.00 0.00 0.00 89 1031.5
20240302234615 36 172 1.0 4.0 0.00 0.00 0.00 88 1031.6
20240302234115 36 172 0.0 4.0 0.00 0.00 0.00 88 1031.7
20240302233614 36 172 0.0 5.0 0.00 0.00 0.00 88 1031.6
20240302233114 36 172 1.0 7.0 0.00 0.00 0.00 88 1031.7
20240302232614 36 172 1.0 7.0 0.00 0.00 0.00 88 1031.8
20240302232114 36 171 0.0 2.0 0.00 0.00 0.00 87 1031.9
20240302231614 36 171 0.0 3.0 0.00 0.00 0.00 87 1031.8
20240302231117 36 171 0.0 3.0 0.00 0.00 0.00 87 1031.8
20240302230614 36 171 0.0 3.0 0.00 0.00 0.00 86 1031.9
20240302230113 36 171 0.0 3.0 0.00 0.00 0.00 86 1031.9
20240302225614 36 171 1.0 3.0 0.00 0.00 0.00 86 1031.9
20240302225113 36 171 0.0 2.0 0.00 0.00 0.00 85 1031.7
20240302224910 36 171 0.0 4.0 0.00 0.00 0.00 85 1031.7
20240302224114 37 171 1.0 4.0 0.00 0.00 0.00 85 1031.7
20240302223613 37 171 0.0 2.0 0.00 0.00 0.00 84 1031.7
20240302223115 37 171 0.0 2.0 0.00 0.00 0.00 84 1031.7
20240302222614 37 171 0.0 4.0 0.00 0.00 0.00 84 1031.7
20240302222113 38 171 1.0 4.0 0.00 0.00 0.00 83 1031.7
20240302221614 38 171 0.0 5.0 0.00 0.00 0.00 83 1031.7
20240302221102 38 171 0.0 6.0 0.00 0.00 0.00 83 1031.7
20240302220605 38 171 0.0 6.0 0.00 0.00 0.00 83 1031.8
20240302220104 38 169 2.0 9.0 0.00 0.00 0.00 82 1031.9
20240302215602 39 171 2.0 10.0 0.00 0.00 0.00 81 1031.9
20240302215404 39 168 3.0 10.0 0.00 0.00 0.00 81 1032.0
20240302214655 40 161 0.0 7.0 0.00 0.00 0.00 78 1031.9
20240302214639 39 166 0.0 6.0 0.00 0.00 0.00 79 1031.9
20240302213602 40 172 2.0 7.0 0.00 0.00 0.00 76 1031.9
20240302213101 41 172 2.0 6.0 0.00 0.00 0.00 75 1031.9
20240302212855 41 175 2.0 9.0 0.00 0.00 0.00 74 1031.8
20240302212400 42 175 0.0 10.0 0.00 0.00 0.00 73 1031.9
20240302211603 42 172 4.0 11.0 0.00 0.00 0.00 72 1031.8
20240302211102 42 161 4.0 11.0 0.00 0.00 0.00 70 1031.7
20240302210602 43 164 2.0 9.0 0.00 0.00 0.00 68 1031.6
20240302210102 43 157 2.0 12.0 0.00 0.00 0.00 67 1031.5
20240302205602 44 162 2.0 12.0 0.00 0.00 0.00 67 1031.5
20240302205103 44 171 2.0 12.0 0.00 0.00 0.00 66 1031.5
20240302204602 44 158 2.0 12.0 0.00 0.00 0.00 65 1031.6
20240302204102 45 155 2.0 10.0 0.00 0.00 0.00 64 1031.5
20240302203602 46 137 3.0 11.0 0.00 0.00 0.00 62 1031.6
20240302203102 46 145 2.0 11.0 0.00 0.00 0.00 61 1031.6
20240302202605 47 180 1.0 10.0 0.00 0.00 0.00 55 1031.7
20240302202358 47 179 4.0 13.0 0.00 0.00 0.00 56 1031.6
20240302201557 47 213 3.0 13.0 0.00 0.00 0.00 56 1031.8
20240302201057 47 203 4.0 13.0 0.00 0.00 0.00 57 1031.7
20240302200559 47 212 4.0 14.0 0.00 0.00 0.00 57 1031.7
20240302200059 47 214 5.0 14.0 0.00 0.00 0.00 57 1031.6
20240302195554 48 230 5.0 13.0 0.00 0.00 0.00 57 1031.7
20240302195053 48 202 3.0 11.0 0.00 0.00 0.00 56 1031.7
20240302194553 48 138 3.0 16.0 0.00 0.00 0.00 56 1031.7
20240302194053 48 171 5.0 16.0 0.00 0.00 0.00 57 1031.7
20240302193552 48 182 6.0 13.0 0.00 0.00 0.00 56 1031.5
20240302193051 49 210 6.0 13.0 0.00 0.00 0.00 56 1031.6
20240302192550 49 219 4.0 13.0 0.00 0.00 0.00 56 1031.6
20240302192353 49 193 6.0 13.0 0.00 0.00 0.00 57 1031.6
20240302191549 49 199 4.0 13.0 0.00 0.00 0.00 57 1031.6
20240302191046 49 195 5.0 14.0 0.00 0.00 0.00 58 1031.5
20240302190843 49 162 4.0 14.0 0.00 0.00 0.00 58 1031.5
20240302190047 49 169 4.0 13.0 0.00 0.00 0.00 59 1031.6